Home > Time Zones > World Clock > Weather > Norway > Ås > Past weeks

Flag for Norway Weather past 2 weeks in Ås, Norway

Now
55 °F

Broken clouds.


Feels Like: 51 °F
Forecast: 51 / 68 °F
Wind: 17 mph from Southwest

Location: Oslo / Fornebu

Current Time: Aug 29, 2015 at 9:24:51 PM

Latest Report: Aug 29, 2015 at 8:50 PM


Visibility: N/A

Pressure: 29.86 "Hg

Humidity: 94%

Dew point: 54 °F

Location of ÅsLocation

Historic Weather in Ås — Graph

°F

Ås temperature yesterday

Maximum temperature yesterday: 59 °F (at 2:50 PM)
Minimum temperature yesterday: 55 °F (at 12:20 AM)
Average temperature yesterday: 56 °F

Past Weeks' High & Low Weather Summary

 TemperatureHumidityPressure
High70 °F (Aug 15, 2:20 AM)100% (Aug 15, 7:20 PM)30.18 "Hg (Aug 15, 7:20 PM)
Low54 °F (Aug 15, 10:50 PM)46% (Aug 18, 7:20 PM)29.33 "Hg (Aug 26, 11:50 PM)
Average59 °F85%29.87 "Hg
* Reported Aug 14 7:20 PM — Aug 29 7:50 PM, Ås, Weather by CustomWeather, © 2015

Note: Actual official high and low records may vary slightly from our data, if they occured in-between our weather recording intervals... More about our weather records

Advertising

Ås weather history for previous 24 hours

 ConditionsComfort  
Time TempWeatherWind HumidityBarometerVisibility
7:50 PM
Sat, Aug 29
55 °FPartly sunny.18 mph94%29.86 "HgN/A
7:20 PM57 °FPartly sunny.18 mph88%29.86 "HgN/A
6:50 PM57 °FPassing clouds.21 mph88%29.86 "HgN/A
6:20 PM57 °FScattered clouds.20 mph88%29.83 "HgN/A
5:50 PM57 °FPartly sunny.23 mph88%29.83 "HgN/A
5:20 PM57 °FScattered clouds.23 mph88%29.83 "HgN/A
4:50 PM57 °FPassing clouds.23 mph94%29.83 "HgN/A
4:20 PM57 °FScattered clouds.22 mph94%29.83 "HgN/A
3:50 PM57 °FBroken clouds.22 mph94%29.83 "HgN/A
3:20 PM57 °FPartly sunny.21 mph94%29.83 "HgN/A
2:50 PM57 °FPartly sunny.22 mph94%29.83 "HgN/A
2:20 PM57 °FPartly sunny.23 mph94%29.80 "HgN/A
1:50 PM57 °FPartly sunny.21 mph94%29.80 "HgN/A
1:20 PM61 °FCool.20 mph83%29.80 "HgN/A
12:50 PM59 °FPassing clouds.20 mph88%29.80 "HgN/A
11:50 AM57 °FBroken clouds.23 mph94%29.80 "HgN/A
11:20 AM57 °FPartly sunny.24 mph94%29.80 "HgN/A
10:50 AM57 °FPartly sunny.24 mph94%29.80 "HgN/A
9:20 AM57 °FBroken clouds.21 mph94%29.80 "HgN/A
8:50 AM57 °FPartly sunny.22 mph94%29.80 "HgN/A
7:50 AM57 °FPartly sunny.22 mph88%29.80 "HgN/A
7:20 AM57 °FPartly sunny.22 mph88%29.77 "HgN/A
6:50 AM57 °FPassing clouds.22 mph88%29.77 "HgN/A
6:20 AM57 °FPassing clouds.23 mph88%29.80 "HgN/A
5:50 AM57 °FPassing clouds.18 mph94%29.80 "HgN/A
4:50 AM57 °FPassing clouds.18 mph88%29.80 "HgN/A
4:20 AM57 °FPassing clouds.21 mph88%29.80 "HgN/A
3:50 AM55 °FPassing clouds.18 mph94%29.80 "HgN/A
3:20 AM55 °FPassing clouds.16 mph94%29.80 "HgN/A
2:50 AM55 °FCool.14 mph94%29.80 "HgN/A
2:20 AM55 °FCool.14 mph94%29.80 "HgN/A
1:50 AM55 °FCool.15 mph94%29.80 "HgN/A
1:20 AM55 °FCool.15 mph94%29.80 "HgN/A
12:50 AM55 °FCool.16 mph94%29.80 "HgN/A
11:50 PM
Fri, Aug 28
55 °FOvercast.18 mph94%29.77 "HgN/A
10:50 PM55 °FPassing clouds.20 mph94%29.77 "HgN/A
10:20 PM55 °FPassing clouds.18 mph94%29.77 "HgN/A
9:50 PM55 °FPassing clouds.18 mph94%29.74 "HgN/A
9:20 PM55 °FPartly sunny.20 mph88%29.74 "HgN/A
Weather by CustomWeather, © 2015

See weather overviewHow to use our weather pages